Skip Page Navigation
NASA JPL Caltech
NASA Logo - Jet Propulsion Laboratory + View the NASA Portal
+ Near-Earth Object (NEO) Program
Search JPL
JPL Home Earth Solar System Stars & Galaxies Technology
JPL Solar System Dynamics
BODIES ORBITS EPHEMERIDES TOOLS PHYSICAL DATA DISCOVERY FAQ SITE MAP
JPL Small-Body Database Browser
Search: [ help ]  
31196 Yulong (1997 YL18)
Classification: Main-belt Asteroid          SPK-ID: 2031196
Ephemeris | Orbit Diagram | Orbital Elements | Physical Parameters | Discovery Circumstances | Close-Approach Data ]

[ show orbit diagram ]
Orbital Elements at Epoch 2457000.5 (2014-Dec-09.0) TDB
Reference: JPL 9 (heliocentric ecliptic J2000)
 Element Value Uncertainty (1-sigma)   Units 
e .1508973311328229 6.3139e-08  
a 2.623306233666184 2.4349e-08 AU
q 2.227456324261859 1.6818e-07 AU
i 1.125890664966387 8.2429e-06 deg
node 183.9209498045106 0.00025895 deg
peri 305.4187525120656 0.00026066 deg
M 327.294147737719 2.7342e-05 deg
tp 2457141.492133909432
(2015-Apr-28.99213391)
0.00011838 JED
period 1551.929232736516
4.25
2.1607e-05
5.916e-08
d
yr
n .231969340100136 3.2297e-09 deg/d
Q 3.019156143070508 2.8023e-08 AU
  Orbit Determination Parameters
   # obs. used (total)      769  
   data-arc span      8136 days (22.28 yr)  
   first obs. used      1992-09-21  
   last obs. used      2014-12-31  
   planetary ephem.      DE431  
   SB-pert. ephem.      SB431-BIG16  
   condition code      0  
   fit RMS      .55397  
   data source      ORB  
   producer      Otto Matic  
   solution date      2015-Jan-08 03:23:27  

Additional Information
 Earth MOID = 1.24279 AU 
 T_jup = 3.387 
[ show covariance matrix ]

Ephemeris | Orbit Diagram | Orbital Elements | Physical Parameters | Discovery Circumstances | Close-Approach Data ]

Physical Parameter Table
Parameter Symbol Value Units Sigma Reference Notes
absolute magnitude H 14.8 mag n/a MPO267817  

31196 Yulong           Discovered 1997 Dec. 24 by the Beijing Schmidt CCD Asteroid Program in Xinglong.
Yulong ("Jade dragon") is the only Naxi-language autonomous county in China. This ethnic culture thrives in a region where the Yulong Snow Mountain remains the southernmost glacier in the northern hemisphere, enjoying the fame of the Glacial Museum and the Kingdom of Flora.
NOTE: some special characters may not display properly (any characters within {} are an attempt to place the proper accent above a character)
Reference: 20080122/MPCPages.arcLast Updated: 2008-03-05

[ show close-approach data ]
Alternate Designations
 1997 YL18 = 1992 SV17 
Ephemeris | Orbit Diagram | Orbital Elements | Physical Parameters | Discovery Circumstances | Close-Approach Data ]
ABOUT SSD CREDITS/AWARDS PRIVACY/COPYRIGHT GLOSSARY LINKS
FirstGov 2015-Jan-30 10:55 UT
(server date/time)  
NASA Home Page
Site Manager:   Donald K. Yeomans
Webmaster  Alan B. Chamberlin